Station Historical Data
Daily Summary for April 16, 2017 Units:  Metric    English   Both
« Previous Day
Next Day »
Daily Weekly Monthly Yearly Custom
  High: Low: Average:
Temperature: 22.2 °C 8.6 °C 17.1 °C
Dew Point: 13.2 °C 6.2 °C 10.2 °C
Humidity: 87% 48% 65%
Wind Speed: 38.6km/h 0km/h 13km/h
Wind Gust: 61.2km/h - -
Wind- - WSW
Pressure: 1013.1 hPa 1007.7 hPa -
Precipitation: 0 mm    
Historical Graphs
 
 
Tabular Data for April 16, 2017
Time Temperature Dew Point Pressure Wind Wind Speed Wind Gust Humidity Rainfall Rate (Hourly)
00:04 19.3 °C 12.1 °C 1012.4 hPa WSW 6.4 km/h 11.3 km/h 63% 0 mm
00:09 19.3 °C 12.1 °C 1012.4 hPa WSW 3.2 km/h 11.3 km/h 63% 0 mm
00:14 19.2 °C 12 °C 1012.4 hPa WSW 8 km/h 14.5 km/h 63% 0 mm
00:19 19 °C 11.8 °C 1012.4 hPa WSW 1.6 km/h 12.9 km/h 63% 0 mm
00:24 18.8 °C 11.3 °C 1012.1 hPa SW 6.4 km/h 8 km/h 62% 0 mm
00:29 18.6 °C 11.1 °C 1012.4 hPa WSW 6.4 km/h 6.4 km/h 62% 0 mm
00:34 18.3 °C 11.2 °C 1012.1 hPa WSW 4.8 km/h 8 km/h 63% 0 mm
00:39 17.9 °C 10.8 °C 1012.1 hPa WSW 3.2 km/h 8 km/h 63% 0 mm
00:44 17.7 °C 10.8 °C 1012.1 hPa SW 4.8 km/h 9.7 km/h 64% 0 mm
00:49 17.4 °C 10.8 °C 1012.1 hPa SW 1.6 km/h 6.4 km/h 65% 0 mm
00:54 17.2 °C 10.6 °C 1012.1 hPa SW 8 km/h 9.7 km/h 65% 0 mm
00:59 16.9 °C 10.5 °C 1012.1 hPa WSW 4.8 km/h 9.7 km/h 66% 0 mm
01:04 16.7 °C 10.6 °C 1012.1 hPa WSW 4.8 km/h 9.7 km/h 67% 0 mm
01:09 16.5 °C 10.3 °C 1012.1 hPa WSW 3.2 km/h 8 km/h 67% 0 mm
01:14 16.3 °C 10.4 °C 1012.1 hPa WSW 3.2 km/h 8 km/h 68% 0 mm
01:19 16.1 °C 10.2 °C 1012.1 hPa WSW 3.2 km/h 8 km/h 68% 0 mm
01:24 16 °C 10.3 °C 1012.1 hPa SW 3.2 km/h 8 km/h 69% 0 mm
01:29 15.9 °C 10.4 °C 1012.1 hPa WSW 4.8 km/h 11.3 km/h 70% 0 mm
01:34 15.8 °C 10.4 °C 1012.1 hPa SW 4.8 km/h 11.3 km/h 70% 0 mm
01:39 15.9 °C 10.6 °C 1011.7 hPa WSW 4.8 km/h 9.7 km/h 71% 0 mm
01:44 16.1 °C 10.8 °C 1011.7 hPa SW 11.3 km/h 12.9 km/h 71% 0 mm
01:49 16.4 °C 11.1 °C 1011.7 hPa SW 9.7 km/h 22.5 km/h 71% 0 mm
01:54 16.8 °C 11.1 °C 1011.7 hPa WSW 20.9 km/h 20.9 km/h 69% 0 mm
01:59 17.2 °C 11.3 °C 1011.7 hPa WSW 4.8 km/h 20.9 km/h 68% 0 mm
02:04 17.4 °C 11.2 °C 1011.7 hPa WSW 8 km/h 20.9 km/h 67% 0 mm
02:09 17.4 °C 10.8 °C 1011.7 hPa WSW 8 km/h 12.9 km/h 65% 0 mm
02:14 17.3 °C 10.6 °C 1011.4 hPa WSW 8 km/h 16.1 km/h 65% 0 mm
02:19 17.2 °C 10.6 °C 1011.4 hPa WSW 9.7 km/h 16.1 km/h 65% 0 mm
02:24 17 °C 10.6 °C 1011.4 hPa SW 8 km/h 20.9 km/h 66% 0 mm
02:29 16.8 °C 10.4 °C 1011.4 hPa WSW 11.3 km/h 12.9 km/h 66% 0 mm
02:34 16.7 °C 10.3 °C 1011.4 hPa WSW 8 km/h 17.7 km/h 66% 0 mm
02:39 16.6 °C 10.4 °C 1011.4 hPa SW 9.7 km/h 17.7 km/h 67% 0 mm
02:44 16.4 °C 10.3 °C 1011.7 hPa WSW 8 km/h 17.7 km/h 67% 0 mm
02:49 16.4 °C 10.3 °C 1011.4 hPa SSW 19.3 km/h 20.9 km/h 67% 0 mm
02:54 16.4 °C 10.2 °C 1011.4 hPa SW 11.3 km/h 20.9 km/h 67% 0 mm
02:59 16.4 °C 10.2 °C 1011.4 hPa South 9.7 km/h 22.5 km/h 67% 0 mm
03:04 16.4 °C 10.2 °C 1011.1 hPa WSW 14.5 km/h 22.5 km/h 67% 0 mm
03:09 16.4 °C 10.2 °C 1011.1 hPa SW 12.9 km/h 24.1 km/h 67% 0 mm
03:14 16.5 °C 10.1 °C 1011.1 hPa WSW 12.9 km/h 24.1 km/h 66% 0 mm
03:19 16.4 °C 10.1 °C 1011.1 hPa SW 11.3 km/h 17.7 km/h 66% 0 mm
03:24 16.6 °C 10.2 °C 1011.1 hPa WSW 11.3 km/h 22.5 km/h 66% 0 mm
03:29 16.6 °C 10.2 °C 1011.4 hPa WSW 14.5 km/h 22.5 km/h 66% 0 mm
03:34 16.8 °C 10.4 °C 1011.1 hPa SW 11.3 km/h 25.7 km/h 66% 0 mm
03:39 16.9 °C 10.3 °C 1011.1 hPa SW 12.9 km/h 25.7 km/h 65% 0 mm
03:44 17.2 °C 10.3 °C 1011.1 hPa WSW 14.5 km/h 25.7 km/h 64% 0 mm
03:49 17.2 °C 10.1 °C 1011.1 hPa WSW 14.5 km/h 33.8 km/h 63% 0 mm
03:54 17.1 °C 10 °C 1011.1 hPa WSW 12.9 km/h 33.8 km/h 63% 0 mm
03:59 17.2 °C 10.1 °C 1011.1 hPa SW 14.5 km/h 29 km/h 63% 0 mm
04:04 17.2 °C 10.1 °C 1011.1 hPa WSW 12.9 km/h 22.5 km/h 63% 0 mm
04:09 17.1 °C 10 °C 1011.1 hPa West 22.5 km/h 25.7 km/h 63% 0 mm
04:14 17.1 °C 9.9 °C 1011.1 hPa SSW 11.3 km/h 25.7 km/h 63% 0 mm
04:19 17 °C 9.9 °C 1011.1 hPa SW 12.9 km/h 24.1 km/h 63% 0 mm
04:24 17.1 °C 9.9 °C 1011.1 hPa SSW 11.3 km/h 22.5 km/h 63% 0 mm
04:29 17.1 °C 9.8 °C 1011.1 hPa WSW 14.5 km/h 17.7 km/h 62% 0 mm
04:34 17.1 °C 9.8 °C 1010.7 hPa West 9.7 km/h 22.5 km/h 62% 0 mm
04:39 17.1 °C 9.7 °C 1010.7 hPa WSW 11.3 km/h 22.5 km/h 62% 0 mm
04:44 16.9 °C 9.6 °C 1010.7 hPa WSW 11.3 km/h 22.5 km/h 62% 0 mm
04:49 16.7 °C 9.4 °C 1010.7 hPa WSW 11.3 km/h 22.5 km/h 62% 0 mm
04:54 16.6 °C 9.2 °C 1010.7 hPa SW 11.3 km/h 22.5 km/h 62% 0 mm
04:59 16.4 °C 9.4 °C 1010.7 hPa SW 11.3 km/h 20.9 km/h 63% 0 mm
05:04 16.4 °C 9.3 °C 1010.7 hPa WSW 11.3 km/h 25.7 km/h 63% 0 mm
05:09 16.6 °C 9.5 °C 1010.7 hPa WSW 11.3 km/h 25.7 km/h 63% 0 mm
05:14 16.9 °C 9.8 °C 1010.4 hPa West 19.3 km/h 24.1 km/h 63% 0 mm
05:19 17.2 °C 9.8 °C 1010.4 hPa SW 9.7 km/h 19.3 km/h 62% 0 mm
05:24 17.6 °C 9.9 °C 1010.4 hPa SW 9.7 km/h 30.6 km/h 61% 0 mm
05:29 17.8 °C 9.9 °C 1010.7 hPa WSW 3.2 km/h 29 km/h 60% 0 mm
05:34 17.8 °C 9.7 °C 1010.7 hPa WNW 14.5 km/h 24.1 km/h 59% 0 mm
05:39 17.6 °C 9.4 °C 1010.7 hPa WSW 11.3 km/h 24.1 km/h 59% 0 mm
05:44 17.3 °C 9.4 °C 1010.7 hPa WSW 11.3 km/h 20.9 km/h 60% 0 mm
05:49 17.1 °C 9.3 °C 1010.7 hPa WSW 11.3 km/h 20.9 km/h 60% 0 mm
05:54 16.9 °C 9.4 °C 1010.4 hPa WSW 9.7 km/h 17.7 km/h 61% 0 mm
05:59 16.9 °C 9.4 °C 1010.4 hPa WSW 9.7 km/h 19.3 km/h 61% 0 mm
06:04 17.1 °C 9.5 °C 1010.7 hPa SW 8 km/h 19.3 km/h 61% 0 mm
06:09 17.2 °C 9.6 °C 1010.4 hPa SW 9.7 km/h 22.5 km/h 61% 0 mm
06:14 17.4 °C 9.8 °C 1010.4 hPa WSW 6.4 km/h 20.9 km/h 61% 0 mm
06:19 17.6 °C 9.7 °C 1010.4 hPa West 8 km/h 17.7 km/h 60% 0 mm
06:24 17.7 °C 9.8 °C 1010.4 hPa SW 11.3 km/h 19.3 km/h 60% 0 mm
06:29 17.8 °C 9.7 °C 1010.4 hPa SW 16.1 km/h 17.7 km/h 59% 0 mm
06:34 18 °C 9.6 °C 1010.4 hPa SW 9.7 km/h 20.9 km/h 58% 0 mm
06:39 18.1 °C 9.7 °C 1010.4 hPa SW 9.7 km/h 20.9 km/h 58% 0 mm
06:44 18.2 °C 9.6 °C 1010.4 hPa SW 9.7 km/h 17.7 km/h 57% 0 mm
06:49 18.3 °C 9.7 °C 1010.4 hPa SW 9.7 km/h 20.9 km/h 57% 0 mm
06:54 18.4 °C 9.5 °C 1010.4 hPa SW 11.3 km/h 20.9 km/h 56% 0 mm
06:59 18.4 °C 9.5 °C 1010.4 hPa SSW 11.3 km/h 17.7 km/h 56% 0 mm
07:04 18.4 °C 9.5 °C 1010.4 hPa WSW 14.5 km/h 20.9 km/h 56% 0 mm
07:09 18.5 °C 9.6 °C 1010.4 hPa SW 11.3 km/h 22.5 km/h 56% 0 mm
07:14 18.6 °C 9.6 °C 1010.4 hPa SW 9.7 km/h 22.5 km/h 56% 0 mm
07:19 18.7 °C 9.5 °C 1010.4 hPa SSW 11.3 km/h 19.3 km/h 55% 0 mm
07:24 19 °C 9.8 °C 1010.4 hPa WSW 14.5 km/h 24.1 km/h 55% 0 mm
07:29 19.3 °C 9.7 °C 1010.4 hPa SW 16.1 km/h 16.1 km/h 54% 0 mm
07:34 19.5 °C 9.7 °C 1010 hPa SSE 17.7 km/h 22.5 km/h 53% 0 mm
07:39 19.8 °C 9.9 °C 1010 hPa SW 11.3 km/h 24.1 km/h 53% 0 mm
07:44 19.9 °C 10.1 °C 1010 hPa SW 9.7 km/h 24.1 km/h 53% 0 mm
07:49 20.1 °C 9.9 °C 1010 hPa SW 9.7 km/h 22.5 km/h 52% 0 mm
07:54 20.2 °C 10 °C 1010 hPa SW 22.5 km/h 22.5 km/h 52% 0 mm
07:59 20.4 °C 9.9 °C 1009.7 hPa SSW 8 km/h 24.1 km/h 51% 0 mm
08:04 20.6 °C 10.1 °C 1009.7 hPa SW 11.3 km/h 22.5 km/h 51% 0 mm
08:09 20.7 °C 9.9 °C 1009.7 hPa SW 4.8 km/h 24.1 km/h 50% 0 mm
08:14 20.8 °C 10.3 °C 1009.7 hPa SSW 11.3 km/h 24.1 km/h 51% 0 mm
08:19 21.1 °C 10.6 °C 1009.4 hPa SW 9.7 km/h 22.5 km/h 51% 0 mm
08:24 21.3 °C 10.2 °C 1009.4 hPa WSW 6.4 km/h 24.1 km/h 49% 0 mm
08:29 21.4 °C 10.2 °C 1009.4 hPa SW 12.9 km/h 19.3 km/h 49% 0 mm
08:34 21.7 °C 10.5 °C 1009.4 hPa SSW 9.7 km/h 27.4 km/h 49% 0 mm
08:39 21.9 °C 10.4 °C 1009.4 hPa WSW 17.7 km/h 27.4 km/h 48% 0 mm
08:44 22.1 °C 10.6 °C 1009 hPa SW 12.9 km/h 30.6 km/h 48% 0 mm
08:49 21.8 °C 10.6 °C 1009 hPa SW 14.5 km/h 30.6 km/h 49% 0 mm
08:54 21.8 °C 10.9 °C 1009 hPa SW 11.3 km/h 27.4 km/h 50% 0 mm
08:59 21.7 °C 10.8 °C 1009 hPa SW 22.5 km/h 30.6 km/h 50% 0 mm
09:04 21.8 °C 10.6 °C 1009 hPa SSW 24.1 km/h 40.2 km/h 49% 0 mm
09:09 21.9 °C 10.7 °C 1009 hPa SW 16.1 km/h 40.2 km/h 49% 0 mm
09:14 22.1 °C 11.2 °C 1008.7 hPa SW 14.5 km/h 35.4 km/h 50% 0 mm
09:19 22.2 °C 11.2 °C 1008.7 hPa SW 14.5 km/h 30.6 km/h 50% 0 mm
09:24 21.9 °C 11 °C 1008.7 hPa SW 16.1 km/h 30.6 km/h 50% 0 mm
09:29 21.6 °C 11.1 °C 1008.7 hPa SSW 17.7 km/h 33.8 km/h 51% 0 mm
09:34 21.4 °C 10.9 °C 1008.7 hPa SW 9.7 km/h 32.2 km/h 51% 0 mm
09:39 21.4 °C 11.2 °C 1008.7 hPa SW 6.4 km/h 27.4 km/h 52% 0 mm
09:44 21.3 °C 11 °C 1008.7 hPa SW 14.5 km/h 27.4 km/h 52% 0 mm
09:49 21.1 °C 10.9 °C 1008.7 hPa SW 11.3 km/h 30.6 km/h 52% 0 mm
09:54 21 °C 11.1 °C 1008.7 hPa West 8 km/h 32.2 km/h 53% 0 mm
09:59 20.9 °C 11 °C 1008.7 hPa South 14.5 km/h 33.8 km/h 53% 0 mm
10:04 21 °C 11.3 °C 1008.7 hPa SSW 19.3 km/h 30.6 km/h 54% 0 mm
10:09 21 °C 11.3 °C 1008.7 hPa SW 16.1 km/h 30.6 km/h 54% 0 mm
10:14 21 °C 11.1 °C 1008.4 hPa SW 17.7 km/h 33.8 km/h 53% 0 mm
10:19 21 °C 11.3 °C 1008.4 hPa SW 17.7 km/h 33.8 km/h 54% 0 mm
10:24 20.9 °C 11.3 °C 1008.4 hPa SW 17.7 km/h 35.4 km/h 54% 0 mm
10:29 21.1 °C 11.2 °C 1008.4 hPa SW 19.3 km/h 41.8 km/h 53% 0 mm
10:34 21.3 °C 11.6 °C 1008.4 hPa SW 19.3 km/h 43.5 km/h 54% 0 mm
10:39 21.3 °C 11.6 °C 1008.4 hPa SW 22.5 km/h 38.6 km/h 54% 0 mm
10:44 21.2 °C 11.6 °C 1008.4 hPa WNW 20.9 km/h 40.2 km/h 54% 0 mm
10:49 21 °C 11.6 °C 1008.4 hPa WSW 12.9 km/h 53.1 km/h 55% 0 mm
10:54 20.8 °C 11.7 °C 1008.4 hPa SW 27.4 km/h 46.7 km/h 56% 0 mm
10:59 20.8 °C 11.7 °C 1008.4 hPa West 22.5 km/h 41.8 km/h 56% 0 mm
11:04 21.3 °C 12.4 °C 1008 hPa WSW 16.1 km/h 43.5 km/h 57% 0 mm
11:09 21.6 °C 12.2 °C 1008 hPa WNW 29 km/h 38.6 km/h 55% 0 mm
11:14 21.5 °C 12.3 °C 1008 hPa SW 22.5 km/h 38.6 km/h 56% 0 mm
11:19 21.7 °C 12.2 °C 1008.4 hPa SW 20.9 km/h 46.7 km/h 55% 0 mm
11:24 21.9 °C 12.7 °C 1008 hPa WSW 19.3 km/h 46.7 km/h 56% 0 mm
11:29 21.8 °C 12.4 °C 1008 hPa WSW 19.3 km/h 37 km/h 55% 0 mm
11:34 21.4 °C 12.3 °C 1008 hPa WSW 20.9 km/h 40.2 km/h 56% 0 mm
11:39 21.3 °C 12.4 °C 1007.7 hPa SSW 27.4 km/h 38.6 km/h 57% 0 mm
11:44 21.5 °C 12.3 °C 1008 hPa WSW 20.9 km/h 38.6 km/h 56% 0 mm
11:49 21.3 °C 12.4 °C 1007.7 hPa SSW 27.4 km/h 40.2 km/h 57% 0 mm
11:54 21.3 °C 12.7 °C 1008 hPa West 17.7 km/h 35.4 km/h 58% 0 mm
11:59 21.4 °C 12.6 °C 1007.7 hPa SW 25.7 km/h 40.2 km/h 57% 0 mm
12:04 21.7 °C 12.8 °C 1007.7 hPa West 30.6 km/h 37 km/h 57% 0 mm
12:09 21.6 °C 12.7 °C 1007.7 hPa SW 29 km/h 41.8 km/h 57% 0 mm
12:14 21.5 °C 12.9 °C 1007.7 hPa West 17.7 km/h 41.8 km/h 58% 0 mm
12:19 21.9 °C 12.8 °C 1007.7 hPa WSW 20.9 km/h 41.8 km/h 56% 0 mm
12:24 22 °C 12.8 °C 1007.7 hPa WSW 24.1 km/h 56.3 km/h 56% 0 mm
12:29 22 °C 13.1 °C 1008 hPa WSW 24.1 km/h 56.3 km/h 57% 0 mm
12:34 21.4 °C 12.5 °C 1007.7 hPa WSW 25.7 km/h 49.9 km/h 57% 0 mm
12:39 20.8 °C 12.2 °C 1008 hPa SW 22.5 km/h 48.3 km/h 58% 0 mm
12:44 20.1 °C 11.6 °C 1008 hPa SW 24.1 km/h 46.7 km/h 58% 0 mm
12:49 19.3 °C 11.6 °C 1008 hPa WSW 25.7 km/h 53.1 km/h 61% 0 mm
12:54 19.6 °C 11.9 °C 1008 hPa WSW 25.7 km/h 53.1 km/h 61% 0 mm
12:59 20.2 °C 12.2 °C 1008 hPa West 22.5 km/h 46.7 km/h 60% 0 mm
13:04 20.4 °C 12.7 °C 1007.7 hPa WSW 19.3 km/h 43.5 km/h 61% 0 mm
13:09 20.9 °C 12.8 °C 1007.7 hPa West 29 km/h 51.5 km/h 60% 0 mm
13:14 21 °C 12.7 °C 1007.7 hPa SW 38.6 km/h 53.1 km/h 59% 0 mm
13:19 20.7 °C 12.7 °C 1007.7 hPa WSW 25.7 km/h 61.2 km/h 60% 0 mm
13:24 20.4 °C 12.4 °C 1007.7 hPa WSW 27.4 km/h 61.2 km/h 60% 0 mm
13:29 20.1 °C 12.6 °C 1008 hPa WSW 27.4 km/h 54.7 km/h 62% 0 mm
13:34 19.8 °C 12.6 °C 1008.4 hPa West 24.1 km/h 54.7 km/h 63% 0 mm
13:39 19.4 °C 12.4 °C 1008 hPa WNW 27.4 km/h 43.5 km/h 64% 0 mm
13:44 19.1 °C 12.1 °C 1008 hPa West 25.7 km/h 41.8 km/h 64% 0 mm
13:49 18.8 °C 12.1 °C 1008 hPa West 19.3 km/h 41.8 km/h 65% 0 mm
13:54 18.6 °C 12.6 °C 1008 hPa West 20.9 km/h 43.5 km/h 68% 0 mm
13:59 18.4 °C 12.4 °C 1008 hPa West 20.9 km/h 46.7 km/h 68% 0 mm
14:04 18.5 °C 12.3 °C 1008 hPa WSW 14.5 km/h 49.9 km/h 67% 0 mm
14:09 18.6 °C 12.1 °C 1008 hPa SSW 22.5 km/h 46.7 km/h 66% 0 mm
14:14 18.6 °C 11.9 °C 1008 hPa West 20.9 km/h 40.2 km/h 65% 0 mm
14:19 18.8 °C 12.1 °C 1008 hPa West 20.9 km/h 40.2 km/h 65% 0 mm
14:24 19.2 °C 12.2 °C 1007.7 hPa West 19.3 km/h 37 km/h 64% 0 mm
14:29 19.4 °C 12.7 °C 1008 hPa West 19.3 km/h 49.9 km/h 65% 0 mm
14:34 20 °C 12.5 °C 1008 hPa WSW 20.9 km/h 49.9 km/h 62% 0 mm
14:39 20.4 °C 13.2 °C 1008 hPa SW 25.7 km/h 41.8 km/h 63% 0 mm
14:44 20.7 °C 12.7 °C 1008 hPa SW 25.7 km/h 35.4 km/h 60% 0 mm
14:49 20.8 °C 13 °C 1008 hPa WNW 20.9 km/h 43.5 km/h 61% 0 mm
14:54 20.8 °C 13 °C 1008 hPa WSW 24.1 km/h 43.5 km/h 61% 0 mm
14:59 20.9 °C 12.6 °C 1008 hPa WSW 22.5 km/h 43.5 km/h 59% 0 mm
15:04 21.1 °C 13.1 °C 1008 hPa WSW 19.3 km/h 37 km/h 60% 0 mm
15:09 20.8 °C 12.7 °C 1008 hPa WSW 17.7 km/h 43.5 km/h 60% 0 mm
15:14 20.5 °C 12.7 °C 1008 hPa SW 12.9 km/h 30.6 km/h 61% 0 mm
15:19 20.6 °C 12.8 °C 1008 hPa West 8 km/h 38.6 km/h 61% 0 mm
15:24 20.8 °C 13.1 °C 1008 hPa WSW 19.3 km/h 38.6 km/h 61% 0 mm
15:29 21 °C 12.9 °C 1008 hPa WSW 17.7 km/h 35.4 km/h 60% 0 mm
15:34 21.2 °C 12.8 °C 1008 hPa WSW 17.7 km/h 35.4 km/h 59% 0 mm
15:39 20.8 °C 12.5 °C 1007.7 hPa WSW 17.7 km/h 35.4 km/h 59% 0 mm
15:44 20.7 °C 12.9 °C 1007.7 hPa WSW 19.3 km/h 35.4 km/h 61% 0 mm
15:49 21.1 °C 13 °C 1007.7 hPa West 12.9 km/h 29 km/h 60% 0 mm
15:54 21.1 °C 13.1 °C 1008 hPa WSW 17.7 km/h 35.4 km/h 60% 0 mm
15:59 20.8 °C 12.5 °C 1007.7 hPa WSW 17.7 km/h 35.4 km/h 59% 0 mm
16:04 20.6 °C 12.5 °C 1008 hPa WSW 22.5 km/h 29 km/h 60% 0 mm
16:09 20.7 °C 12.7 °C 1008 hPa West 9.7 km/h 35.4 km/h 60% 0 mm
16:14 20.7 °C 12.9 °C 1008 hPa SW 11.3 km/h 35.4 km/h 61% 0 mm
16:19 20.8 °C 13.1 °C 1008 hPa WSW 24.1 km/h 27.4 km/h 61% 0 mm
16:24 20.6 °C 12.8 °C 1008 hPa WSW 17.7 km/h 30.6 km/h 61% 0 mm
16:29 20.6 °C 12.6 °C 1008 hPa WSW 16.1 km/h 30.6 km/h 60% 0 mm
16:34 20.3 °C 12.8 °C 1008 hPa WSW 20.9 km/h 32.2 km/h 62% 0 mm
16:39 20.3 °C 12.6 °C 1008 hPa West 19.3 km/h 27.4 km/h 61% 0 mm
16:44 20.2 °C 12.7 °C 1008 hPa WNW 14.5 km/h 27.4 km/h 62% 0 mm
16:49 19.9 °C 12.4 °C 1008.4 hPa WSW 16.1 km/h 32.2 km/h 62% 0 mm
16:54 19.2 °C 12 °C 1008 hPa WSW 19.3 km/h 33.8 km/h 63% 0 mm
16:59 18.6 °C 11.6 °C 1008.4 hPa WSW 19.3 km/h 33.8 km/h 64% 0 mm
17:04 18.6 °C 11.9 °C 1008.4 hPa WSW 19.3 km/h 33.8 km/h 65% 0 mm
17:09 18.4 °C 11.7 °C 1008.4 hPa WSW 16.1 km/h 32.2 km/h 65% 0 mm
17:14 18.2 °C 11.5 °C 1008.4 hPa WSW 11.3 km/h 27.4 km/h 65% 0 mm
17:19 17.4 °C 11.2 °C 1008.7 hPa WSW 16.1 km/h 37 km/h 67% 0 mm
17:24 16.8 °C 10.8 °C 1008.4 hPa WSW 16.1 km/h 37 km/h 68% 0 mm
17:29 16.7 °C 11 °C 1008.7 hPa SSW 11.3 km/h 32.2 km/h 69% 0 mm
17:34 16.4 °C 10.7 °C 1008.7 hPa SW 20.9 km/h 35.4 km/h 69% 0 mm
17:39 16.4 °C 10.9 °C 1008.7 hPa West 4.8 km/h 27.4 km/h 70% 0 mm
17:44 16.6 °C 10.9 °C 1008.7 hPa WSW 14.5 km/h 20.9 km/h 69% 0 mm
17:49 16.6 °C 10.6 °C 1008.7 hPa WNW 9.7 km/h 22.5 km/h 68% 0 mm
17:54 15.9 °C 10.4 °C 1009 hPa WSW 12.9 km/h 27.4 km/h 70% 0 mm
17:59 15.6 °C 10.4 °C 1008.7 hPa WSW 12.9 km/h 27.4 km/h 71% 0 mm
18:04 15.3 °C 10.1 °C 1008.7 hPa WSW 12.9 km/h 25.7 km/h 71% 0 mm
18:09 15.2 °C 10.2 °C 1008.7 hPa WSW 14.5 km/h 25.7 km/h 72% 0 mm
18:14 15 °C 10 °C 1008.7 hPa WSW 12.9 km/h 27.4 km/h 72% 0 mm
18:19 15.4 °C 10.4 °C 1008.7 hPa SW 6.4 km/h 27.4 km/h 72% 0 mm
18:24 15.5 °C 10.3 °C 1008.7 hPa SW 30.6 km/h 30.6 km/h 71% 0 mm
18:29 15.1 °C 9.9 °C 1009 hPa SSW 11.3 km/h 30.6 km/h 71% 0 mm
18:34 14.6 °C 9.6 °C 1009 hPa WNW 9.7 km/h 25.7 km/h 72% 0 mm
18:39 14.6 °C 9.8 °C 1009 hPa WSW 16.1 km/h 19.3 km/h 73% 0 mm
18:44 14.6 °C 9.8 °C 1009 hPa SW 19.3 km/h 22.5 km/h 73% 0 mm
18:49 14.5 °C 9.7 °C 1009 hPa WSW 11.3 km/h 22.5 km/h 73% 0 mm
18:54 14.3 °C 9.6 °C 1009 hPa WSW 11.3 km/h 20.9 km/h 73% 0 mm
18:59 14.3 °C 9.6 °C 1009 hPa WSW 11.3 km/h 22.5 km/h 73% 0 mm
19:04 14.1 °C 9.5 °C 1009 hPa WSW 11.3 km/h 22.5 km/h 74% 0 mm
19:09 13.8 °C 9.3 °C 1009 hPa WSW 9.7 km/h 17.7 km/h 74% 0 mm
19:14 13.6 °C 9.2 °C 1009 hPa WSW 9.7 km/h 14.5 km/h 75% 0 mm
19:19 13.3 °C 9 °C 1009.4 hPa SW 8 km/h 14.5 km/h 75% 0 mm
19:24 13.2 °C 8.8 °C 1009.4 hPa West 3.2 km/h 14.5 km/h 75% 0 mm
19:29 13.2 °C 9 °C 1009.7 hPa West 9.7 km/h 11.3 km/h 76% 0 mm
19:34 13.3 °C 9.1 °C 1009.4 hPa SW 11.3 km/h 14.5 km/h 76% 0 mm
19:39 13.2 °C 8.8 °C 1009 hPa SSW 4.8 km/h 12.9 km/h 75% 0 mm
19:44 12.9 °C 8.8 °C 1009.4 hPa SW 6.4 km/h 12.9 km/h 76% 0 mm
19:49 12.8 °C 8.7 °C 1009.4 hPa SW 4.8 km/h 11.3 km/h 76% 0 mm
19:54 12.4 °C 8.3 °C 1009.4 hPa SSW 4.8 km/h 11.3 km/h 76% 0 mm
19:59 12 °C 8.1 °C 1009.4 hPa SW 6.4 km/h 11.3 km/h 77% 0 mm
20:04 11.6 °C 7.8 °C 1009.7 hPa SSW 4.8 km/h 17.7 km/h 78% 0 mm
20:09 11.3 °C 7.6 °C 1009.7 hPa SSW 6.4 km/h 9.7 km/h 78% 0 mm
20:14 11.2 °C 7.7 °C 1009.7 hPa SW 6.4 km/h 12.9 km/h 79% 0 mm
20:19 11.2 °C 7.7 °C 1010 hPa SW 6.4 km/h 14.5 km/h 79% 0 mm
20:24 11.1 °C 7.6 °C 1010 hPa SW 6.4 km/h 14.5 km/h 79% 0 mm
20:29 11 °C 7.5 °C 1010 hPa SW 6.4 km/h 14.5 km/h 79% 0 mm
20:34 10.8 °C 7.3 °C 1010 hPa SW 1.6 km/h 9.7 km/h 79% 0 mm
20:39 10.6 °C 7.1 °C 1010 hPa SSW 6.4 km/h 11.3 km/h 79% 0 mm
20:44 10.4 °C 7.2 °C 1010.4 hPa SSW 6.4 km/h 12.9 km/h 80% 0 mm
20:49 10.3 °C 7 °C 1010.4 hPa SSW 6.4 km/h 14.5 km/h 80% 0 mm
20:54 10.1 °C 6.8 °C 1010.4 hPa West 9.7 km/h 16.1 km/h 80% 0 mm
20:59 9.8 °C 6.6 °C 1010.7 hPa SSW 9.7 km/h 14.5 km/h 80% 0 mm
21:04 9.7 °C 6.6 °C 1010.7 hPa SW 8 km/h 16.1 km/h 81% 0 mm
21:09 9.6 °C 6.4 °C 1010.7 hPa SW 8 km/h 16.1 km/h 81% 0 mm
21:14 9.5 °C 6.4 °C 1010.7 hPa SSW 8 km/h 16.1 km/h 81% 0 mm
21:19 9.4 °C 6.4 °C 1010.7 hPa SW 4.8 km/h 11.3 km/h 82% 0 mm
21:24 9.2 °C 6.3 °C 1010.7 hPa SSW 6.4 km/h 11.3 km/h 82% 0 mm
21:29 9.2 °C 6.3 °C 1011.1 hPa SW 6.4 km/h 16.1 km/h 82% 0 mm
21:34 9.1 °C 6.2 °C 1011.1 hPa SW 3.2 km/h 14.5 km/h 82% 0 mm
21:39 9.1 °C 6.3 °C 1011.1 hPa SW 6.4 km/h 9.7 km/h 83% 0 mm
21:44 9 °C 6.3 °C 1011.1 hPa South 3.2 km/h 14.5 km/h 83% 0 mm
21:49 8.9 °C 6.2 °C 1011.1 hPa SW 8 km/h 20.9 km/h 83% 0 mm
21:54 8.9 °C 6.4 °C 1011.1 hPa SW 9.7 km/h 20.9 km/h 84% 0 mm
21:59 8.9 °C 6.3 °C 1011.1 hPa WSW 12.9 km/h 16.1 km/h 84% 0 mm
22:04 8.9 °C 6.3 °C 1011.4 hPa West 6.4 km/h 19.3 km/h 84% 0 mm
22:09 8.8 °C 6.3 °C 1011.7 hPa SW 12.9 km/h 17.7 km/h 84% 0 mm
22:14 8.8 °C 6.4 °C 1011.4 hPa SW 9.7 km/h 19.3 km/h 85% 0 mm
22:19 8.7 °C 6.3 °C 1011.4 hPa SW 8 km/h 19.3 km/h 85% 0 mm
22:24 8.7 °C 6.3 °C 1011.4 hPa SW 8 km/h 20.9 km/h 85% 0 mm
22:29 8.7 °C 6.3 °C 1011.4 hPa SW 8 km/h 20.9 km/h 85% 0 mm
22:34 8.6 °C 6.4 °C 1011.4 hPa SW 6.4 km/h 16.1 km/h 86% 0 mm
22:39 8.6 °C 6.4 °C 1011.4 hPa SW 11.3 km/h 11.3 km/h 86% 0 mm
22:44 8.6 °C 6.4 °C 1011.7 hPa SW 4.8 km/h 14.5 km/h 86% 0 mm
22:49 8.6 °C 6.3 °C 1011.7 hPa SW 6.4 km/h 20.9 km/h 86% 0 mm
22:54 8.6 °C 6.3 °C 1011.7 hPa SW 3.2 km/h 16.1 km/h 86% 0 mm
22:59 8.6 °C 6.4 °C 1011.7 hPa SW 3.2 km/h 11.3 km/h 86% 0 mm
23:04 8.6 °C 6.4 °C 1011.7 hPa South 8 km/h 11.3 km/h 86% 0 mm
23:09 8.8 °C 6.7 °C 1011.7 hPa WSW 1.6 km/h 11.3 km/h 87% 0 mm
23:14 8.9 °C 6.8 °C 1012.8 hPa WSW 6.4 km/h 11.3 km/h 87% 0 mm
23:19 8.9 °C 6.9 °C 1012.8 hPa WNW 4.8 km/h 11.3 km/h 87% 0 mm
23:24 9.1 °C 6.8 °C 1012.8 hPa West 3.2 km/h 6.4 km/h 86% 0 mm
23:29 9.1 °C 6.9 °C 1012.4 hPa West 1.6 km/h 6.4 km/h 86% 0 mm
23:34 9.1 °C 6.9 °C 1012.4 hPa Calm   3.2 km/h 86% 0 mm
23:39 9.1 °C 6.9 °C 1012.8 hPa Calm   3.2 km/h 86% 0 mm
23:44 9.1 °C 6.8 °C 1012.8 hPa WSW 3.2 km/h 3.2 km/h 86% 0 mm
23:49 9.1 °C 6.8 °C 1012.8 hPa Calm   6.4 km/h 86% 0 mm
23:54 9.1 °C 6.9 °C 1012.8 hPa Calm   3.2 km/h 86% 0 mm
23:59 9.1 °C 6.9 °C 1013.1 hPa South 3.2 km/h 8 km/h 86% 0 mm
Buffalo, New York, USA
Compliments of Weather Underground - 2.5 mb